This is the latest recevied weather packets stored in our database for station/object N9BSW. If no packets are shown the sender has not sent any weather packets the latest 10 day(s).
| Time | Temp. | Humidity | Pressure | Rain* | Wind** | Luminosity | Snow |
|---|---|---|---|---|---|---|---|
| 1776979162 | 28.89° C | 30% | 1011.4 hPa | 0 mm | - | 498 W/m² | - |
| 1776978859 | 28.89° C | 31% | 1011.1 hPa | 0 mm | - | 470 W/m² | - |
| 1776978556 | 28.89° C | 30% | 1011.4 hPa | 0 mm | - | 528 W/m² | - |
| 1776978254 | 29.44° C | 28% | 1011.5 hPa | 0 mm | - | 267 W/m² | - |
| 1776977951 | 28.89° C | 30% | 1011.5 hPa | 0 mm | - | 595 W/m² | - |
| 1776977648 | 28.89° C | 30% | 1011.4 hPa | 0 mm | - | 598 W/m² | - |
| 1776977343 | 28.89° C | 32% | 1011.6 hPa | 0 mm | - | 591 W/m² | - |
| 1776977041 | 28.89° C | 31% | 1011.7 hPa | 0 mm | - | 581 W/m² | - |
| 1776976736 | 29.44° C | 29% | 1011.8 hPa | 0 mm | - | 586 W/m² | - |
| 1776976431 | 29.44° C | 31% | 1011.7 hPa | 0 mm | - | 619 W/m² | - |
| 1776976127 | 28.89° C | 30% | 1011.7 hPa | 0 mm | - | 286 W/m² | - |
| 1776975824 | 28.89° C | 29% | 1011.7 hPa | 0 mm | - | 656 W/m² | - |
| 1776975521 | 28.89° C | 30% | 1011.9 hPa | 0 mm | - | 665 W/m² | - |
| 1776975218 | 29.44° C | 30% | 1012.1 hPa | 0 mm | - | 662 W/m² | - |
| 1776974914 | 30° C | 30% | 1012.1 hPa | 0 mm | - | 673 W/m² | - |
| 1776974612 | 29.44° C | 31% | 1012.1 hPa | 0 mm | - | 686 W/m² | - |
| 1776974309 | 29.44° C | 29% | 1012.2 hPa | 0 mm | - | 693 W/m² | - |
| 1776974006 | 28.33° C | 31% | 1012.3 hPa | 0 mm | - | 669 W/m² | - |
| 1776973703 | 29.44° C | 29% | 1012.2 hPa | 0 mm | - | 709 W/m² | - |
| 1776973401 | 30° C | 29% | 1012.4 hPa | 0 mm | - | 795 W/m² | - |
| 1776973098 | 30° C | 30% | 1012.3 hPa | 0 mm | - | 741 W/m² | - |
| 1776972795 | 29.44° C | 30% | 1012.6 hPa | 0 mm | - | 745 W/m² | - |
| 1776972489 | 29.44° C | 29% | 1012.7 hPa | 0 mm | - | 723 W/m² | - |
| 1776972188 | 28.89° C | 31% | 1012.6 hPa | 0 mm | - | 730 W/m² | - |
| 1776971883 | 28.89° C | 31% | 1012.6 hPa | 0 mm | - | 818 W/m² | - |
* Rain latest hour (hover to see other rain measurements)
** Current wind speed in m/s (hover to see current wind gust speed)